This is the latest recevied weather packets stored in our database for station/object JA3QOS-13. If no packets are shown the sender has not sent any weather packets the latest 10 day(s).
| Time | Temp. | Humidity | Pressure | Rain* | Wind** | Luminosity | Snow |
|---|---|---|---|---|---|---|---|
| 1787850004 | 21.67° C | 99% | 1011.2 hPa | 26.92 mm | - | - | - |
| 1787848204 | 21.11° C | 99% | 1011.9 hPa | 12.7 mm | - | - | - |
| 1787846404 | 23.33° C | 99% | 1012.2 hPa | 2.79 mm | - | - | - |
| 1787844604 | 23.33° C | 99% | 1011.9 hPa | 1.02 mm | - | - | - |
| 1787842805 | 23.89° C | 99% | 1011.6 hPa | 0 mm | - | - | - |
| 1787841003 | 23.89° C | 99% | 1011.6 hPa | 0 mm | - | - | - |
| 1787839204 | 24.44° C | 99% | 1011.6 hPa | 0 mm | - | - | - |
| 1787837404 | 24.44° C | 99% | 1011.5 hPa | 0 mm | - | - | - |
| 1787835604 | 24.44° C | 99% | 1011.8 hPa | 0 mm | - | - | - |
| 1787833804 | 24.44° C | 99% | 1011.6 hPa | 0 mm | - | - | - |
| 1787832004 | 24.44° C | 99% | 1012.1 hPa | 0 mm | - | - | - |
| 1787830204 | 24.44° C | 99% | 1012.1 hPa | 0 mm | - | - | - |
| 1787828403 | 24.44° C | 98% | 1011.4 hPa | 0 mm | - | - | - |
| 1787826604 | 25° C | 97% | 1011.2 hPa | 0 mm | - | - | - |
| 1787824804 | 25° C | 96% | 1011.4 hPa | 0 mm | - | - | - |
| 1787823004 | 25° C | 95% | 1011.1 hPa | 0 mm | - | - | - |
| 1787821204 | 25° C | 93% | 1010.9 hPa | 0 mm | - | - | - |
| 1787819404 | 25° C | 93% | 1010.9 hPa | 0 mm | - | - | - |
| 1787817604 | 26.11° C | 93% | 1010.8 hPa | 0 mm | - | - | - |
| 1787815804 | 26.67° C | 91% | 1010.3 hPa | 0 mm | - | - | - |
| 1787814003 | 27.22° C | 90% | 1010.4 hPa | 0 mm | - | - | - |
| 1787812204 | 28.89° C | 88% | 1010.4 hPa | 0 mm | - | - | - |
| 1787810404 | 27.78° C | 87% | 1010.5 hPa | 0 mm | - | - | - |
| 1787808604 | 27.78° C | 87% | 1010.5 hPa | 0 mm | - | - | - |
| 1787806803 | 28.33° C | 84% | 1010.8 hPa | 0 mm | - | - | - |
* Rain latest hour (hover to see other rain measurements)
** Current wind speed in m/s (hover to see current wind gust speed)